Location: Yellowknife
(62.4500°N, 114.3500°W)
Time: 14:37:06
(UTC-06:00)

Amateur Radio Satellites - All Passes

Search period start: 23 October 2014 14:07
Search period end: 24 October 2014 14:07
Location: Yellowknife, 62.4500°N, 114.3500°W

Satellite Date Start Highest point End Downlink Frequencies (MHz)
Time Altitude Azimuth
Oscar 16 23 Oct 14:07:49 14:12:59 67° 255° (WSW) 14:18:08 437.025 USB, Beacon 2401.1428
AO-Echo 23 Oct 14:14:58 14:19:58 88° 70° (ENE) 14:25:11 ?
KITSAT 1 23 Oct 14:16:05 14:23:44 49° 126° (SE) 14:31:24 435.175 FM
Uosat F 23 Oct 14:21:57 14:25:35 20° 38° (NE) 14:29:14 435.120 FM
Uribyol 2 23 Oct 14:24:27 14:29:43 89° 250° (WSW) 14:35:00 436.500 FM
ITAMSAT 1 23 Oct 14:30:06 14:35:21 86° 250° (WSW) 14:40:39 435.822 SSB
AO-7 23 Oct 14:33:32 14:41:21 49° 42° (NE) 14:49:12 29.400 - 29.500 MHz
Gurwin Techsat 1B 23 Oct 14:41:06 14:46:24 74° 66° (ENE) 14:51:45 435.225 FM
ZACube-1 23 Oct 14:44:03 14:46:56 17° 318° (NW) 14:49:46 437.345 MHz
Saudisat 1A 23 Oct 14:45:44 14:50:11 82° 19° (NNE) 14:54:38 436.775 MHz
Sapphire 23 Oct 14:49:57 14:53:56 21° 247° (WSW) 14:57:54 437.095 MHz 1200 baud AX-25 AFSK
UKube-1 23 Oct 14:52:40 14:54:27 12° 328° (NNW) 14:56:14 145.840 MHz, 145.915 MHz
TMSAT-1 23 Oct 14:53:19 14:58:37 73° 66° (ENE) 15:03:57 436.925 FM
Oscar 19 23 Oct 15:02:29 15:07:08 33° 266° (W) 15:11:48 437.125 CW, 437.150 USB
SO-50 23 Oct 15:03:27 15:07:28 31° 129° (SE) 15:11:36 436.795 FM
HO-68 23 Oct 15:09:46 15:15:09 24° 342° (NNW) 15:20:33 435.675 MHz FM
PCSat 23 Oct 15:13:18 15:16:17 15° 253° (WSW) 15:19:17 145.825 MHz
AO-27 23 Oct 15:15:49 15:20:51 47° 260° (W) 15:25:57 436.795 MHz FM
JAS-2 23 Oct 15:21:09 15:26:33 28° 34° (NE) 15:32:27 435.800 - 435.900 CW/SSB, 435.910 FM
FUNcube-1 23 Oct 15:30:06 15:31:29 11° 328° (NNW) 15:32:52 145.950 - 145.970 MHz USB
JAS-1B 23 Oct 15:42:38 15:47:24 26° 272° (W) 15:52:12 435.800 - 435.900 CW/SSB
Oscar 16 23 Oct 15:49:49 15:53:20 18° 277° (W) 15:56:50 437.025 USB, Beacon 2401.1428
AO-Echo 23 Oct 15:55:22 15:59:27 25° 272° (W) 16:03:40 ?
Uosat F 23 Oct 15:58:38 16:03:34 56° 61° (ENE) 16:08:32 435.120 FM
Uribyol 2 23 Oct 16:05:40 16:09:55 25° 272° (W) 16:14:11 436.500 FM
KITSAT 1 23 Oct 16:10:39 16:18:47 87° 332° (NNW) 16:26:57 435.175 FM
ITAMSAT 1 23 Oct 16:11:27 16:15:37 24° 272° (W) 16:19:49 435.822 SSB
Gurwin Techsat 1B 23 Oct 16:22:11 16:26:54 31° 268° (W) 16:31:38 435.225 FM
Saudisat 1A 23 Oct 16:25:24 16:29:38 44° 222° (SW) 16:33:50 436.775 MHz
AO-7 23 Oct 16:25:33 16:33:52 80° 247° (WSW) 16:42:14 29.400 - 29.500 MHz
Hamsat 23 Oct 16:30:35 16:33:51 22° 50° (NE) 16:37:07 145.90 MHz
TMSAT-1 23 Oct 16:34:18 16:39:02 32° 268° (W) 16:43:48 436.925 FM
UOSAT-12 23 Oct 16:35:04 16:39:01 27° 127° (SE) 16:43:01 437.025 FM, 437.400 FM
SO-50 23 Oct 16:42:58 16:47:36 80° 153° (SSE) 16:52:24 436.795 FM
ISS 23 Oct 16:47:15 16:48:48 13° 171° (S) 16:50:22 145.800 FM
HO-68 23 Oct 16:55:45 17:00:51 22° 8° (N) 17:05:56 435.675 MHz FM
AO-27 23 Oct 16:59:28 17:01:44 13° 283° (WNW) 17:04:01 436.795 MHz FM
JAS-2 23 Oct 17:04:14 17:10:29 61° 59° (ENE) 17:17:34 435.800 - 435.900 CW/SSB, 435.910 FM
OPAL 23 Oct 17:25:48 17:27:51 12° 81° (E) 17:29:54 ?
Uosat F 23 Oct 17:37:51 17:42:36 40° 263° (W) 17:47:23 435.120 FM
Hamsat 23 Oct 18:05:09 18:09:22 87° 72° (ENE) 18:13:36 145.90 MHz
Saudisat 1A 23 Oct 18:06:04 18:08:16 14° 243° (WSW) 18:10:29 436.775 MHz
KITSAT 1 23 Oct 18:06:42 18:14:48 69° 359° (N) 18:22:53 435.175 FM
UOSAT-12 23 Oct 18:13:57 18:18:40 73° 150° (SSE) 18:23:26 437.025 FM, 437.400 FM
AO-7 23 Oct 18:20:54 18:27:59 30° 272° (W) 18:35:08 29.400 - 29.500 MHz
ISS 23 Oct 18:23:02 18:24:31 12° 191° (S) 18:26:00 145.800 FM
SO-50 23 Oct 18:23:42 18:28:23 68° 356° (N) 18:33:12 436.795 FM
SO-67 23 Oct 18:40:14 18:43:26 36° 62° (ENE) 18:46:39 435.3500 MHz FM
HO-68 23 Oct 18:40:39 18:46:47 32° 34° (NE) 18:52:56 435.675 MHz FM
JAS-2 23 Oct 18:49:46 18:55:51 49° 264° (W) 19:02:45 435.800 - 435.900 CW/SSB, 435.910 FM
OPAL 23 Oct 19:03:10 19:08:02 48° 104° (ESE) 19:12:50 ?
STRAND 1 23 Oct 19:07:01 19:10:14 16° 81° (E) 19:13:27 ?
Uosat F 23 Oct 19:22:15 19:22:51 10° 285° (WNW) 19:23:28 435.120 FM
ZACube-1 23 Oct 19:30:27 19:30:46 10° 28° (NNE) 19:31:05 437.345 MHz
UKube-1 23 Oct 19:35:12 19:37:50 16° 38° (NE) 19:40:28 145.840 MHz, 145.915 MHz
Hamsat 23 Oct 19:42:46 19:45:55 20° 273° (W) 19:49:04 145.90 MHz
UOSAT-12 23 Oct 19:54:14 19:58:59 70° 353° (N) 20:03:45 437.025 FM, 437.400 FM
KITSAT 1 23 Oct 20:02:40 20:10:50 85° 27° (NNE) 20:18:57 435.175 FM
SO-50 23 Oct 20:04:30 20:09:16 83° 20° (NNE) 20:14:08 436.795 FM
FUNcube-1 23 Oct 20:12:40 20:15:13 15° 39° (NE) 20:17:44 145.950 - 145.970 MHz USB
SO-67 23 Oct 20:13:16 20:16:28 35° 263° (W) 20:19:42 435.3500 MHz FM
Oscar 11 23 Oct 20:16:50 20:20:08 22° 48° (NE) 20:23:26 145.825 FM, Beacon 2401.500 USB
HO-68 23 Oct 20:26:31 20:33:38 69° 58° (ENE) 20:40:48 435.675 MHz FM
JAS-2 23 Oct 20:39:10 20:42:56 16° 290° (WNW) 20:46:56 435.800 - 435.900 CW/SSB, 435.910 FM
OPAL 23 Oct 20:42:11 20:47:02 49° 306° (NW) 20:51:48 ?
STRAND 1 23 Oct 20:45:23 20:50:32 61° 104° (ESE) 20:55:38 ?
ZACube-1 23 Oct 21:02:11 21:05:55 26° 51° (NE) 21:09:35 437.345 MHz
UKube-1 23 Oct 21:09:00 21:13:12 47° 60° (ENE) 21:17:25 145.840 MHz, 145.915 MHz
UOSAT-12 23 Oct 21:34:41 21:39:28 79° 17° (NNE) 21:44:14 437.025 FM, 437.400 FM
SO-50 23 Oct 21:45:08 21:49:42 46° 222° (SW) 21:54:20 436.795 FM
FUNcube-1 23 Oct 21:46:24 21:50:43 44° 61° (ENE) 21:54:58 145.950 - 145.970 MHz USB
Oscar 11 23 Oct 21:51:29 21:55:49 78° 69° (ENE) 22:00:10 145.825 FM, Beacon 2401.500 USB
KITSAT 1 23 Oct 21:58:13 22:05:57 51° 233° (SW) 22:13:39 435.175 FM
HO-68 23 Oct 22:14:57 22:21:48 46° 262° (W) 22:28:42 435.675 MHz FM
OPAL 23 Oct 22:21:30 22:25:02 20° 328° (NNW) 22:28:32 ?
STRAND 1 23 Oct 22:24:49 22:29:38 40° 306° (NW) 22:34:25 ?
RS-15 23 Oct 22:31:06 22:39:26 27° 104° (ESE) 22:47:47 29.354 - 29.394 USB, Beacon 29.352 USB
ZACube-1 23 Oct 22:37:20 22:41:55 88° 252° (WSW) 22:46:26 437.345 MHz
UKube-1 23 Oct 22:45:24 22:49:31 40° 262° (W) 22:53:41 145.840 MHz, 145.915 MHz
UOSAT-12 23 Oct 23:14:57 23:19:35 51° 219° (SW) 23:24:09 437.025 FM, 437.400 FM
FUNcube-1 23 Oct 23:22:47 23:27:10 45° 261° (W) 23:31:29 145.950 - 145.970 MHz USB
SO-50 23 Oct 23:26:39 23:29:20 15° 244° (WSW) 23:32:02 436.795 FM
Oscar 11 23 Oct 23:29:01 23:32:31 23° 270° (W) 23:36:01 145.825 FM, Beacon 2401.500 USB
KITSAT 1 23 Oct 23:54:23 23:59:38 19° 257° (WSW) 00:04:52 435.175 FM
OPAL 24 Oct 00:00:27 00:02:21 12° 352° (N) 00:04:15 ?
STRAND 1 24 Oct 00:04:34 00:07:44 17° 329° (NNW) 00:10:53 ?
HO-68 24 Oct 00:07:48 00:11:34 15° 287° (WNW) 00:15:21 435.675 MHz FM
ZACube-1 24 Oct 00:15:29 00:18:57 21° 273° (W) 00:22:23 437.345 MHz
RS-15 24 Oct 00:38:58 00:49:36 62° 132° (SE) 01:00:21 29.354 - 29.394 USB, Beacon 29.352 USB
Oscar 10/S400 24 Oct 00:51:29 01:26:06 15° 226° (SW) 02:45:51 145.825 - 145.975 CW/USB, Beacon 145.810 USB
UOSAT-12 24 Oct 00:55:50 00:58:53 17° 241° (WSW) 01:01:54 437.025 FM, 437.400 FM
FUNcube-1 24 Oct 01:03:42 01:04:42 11° 283° (WNW) 01:05:42 145.950 - 145.970 MHz USB
MaSat-1 24 Oct 01:08:18 01:11:16 21° 119° (ESE) 01:14:01 437.345 MHz
JAS-1B 24 Oct 01:21:40 01:24:44 14° 76° (ENE) 01:27:59 435.800 - 435.900 CW/SSB
Oscar 19 24 Oct 01:24:31 01:26:02 11° 75° (ENE) 01:27:33 437.125 CW, 437.150 USB
OPAL 24 Oct 01:37:05 01:39:29 14° 16° (NNE) 01:41:52 ?
STRAND 1 24 Oct 01:44:42 01:45:08 10° 353° (N) 01:45:35 ?
Oscar 16 24 Oct 02:08:37 02:12:33 22° 86° (E) 02:16:27 437.025 USB, Beacon 2401.1428
AO-Echo 24 Oct 02:11:40 02:14:52 16° 80° (E) 02:18:05 ?
Uribyol 2 24 Oct 02:26:49 02:30:03 16° 81° (E) 02:33:16 436.500 FM
ITAMSAT 1 24 Oct 02:32:31 02:35:53 17° 82° (E) 02:39:14 435.822 SSB
MaSat-1 24 Oct 02:42:50 02:46:38 89° 141° (SE) 02:50:00 437.345 MHz
Gurwin Techsat 1B 24 Oct 02:47:06 02:49:55 14° 78° (ENE) 02:52:43 435.225 FM
RS-15 24 Oct 02:50:44 03:01:43 85° 342° (NNW) 03:12:56 29.354 - 29.394 USB, Beacon 29.352 USB
TMSAT-1 24 Oct 02:59:02 03:01:42 14° 77° (ENE) 03:04:22 436.925 FM
Oscar 19 24 Oct 03:01:55 03:06:49 43° 98° (E) 03:11:42 437.125 CW, 437.150 USB
JAS-1B 24 Oct 03:11:06 03:17:01 47° 99° (E) 03:23:54 435.800 - 435.900 CW/SSB
OPAL 24 Oct 03:12:53 03:17:00 25° 39° (NE) 03:21:05 ?
AO-27 24 Oct 03:17:21 03:22:01 31° 92° (E) 03:26:38 436.795 MHz FM
STRAND 1 24 Oct 03:20:40 03:22:22 12° 17° (NNE) 03:24:04 ?
Oscar 16 24 Oct 03:47:33 03:52:44 80° 108° (ESE) 03:57:53 437.025 USB, Beacon 2401.1428
AO-Echo 24 Oct 03:49:33 03:54:46 58° 102° (ESE) 04:00:01 ?
Sapphire 24 Oct 04:03:17 04:04:07 10° 102° (ESE) 04:04:58 437.095 MHz 1200 baud AX-25 AFSK
Uribyol 2 24 Oct 04:05:27 04:10:39 60° 103° (ESE) 04:15:49 436.500 FM
ITAMSAT 1 24 Oct 04:11:15 04:16:29 62° 104° (ESE) 04:21:40 435.822 SSB
AO-7 24 Oct 04:14:53 04:20:41 20° 78° (ENE) 04:26:27 29.400 - 29.500 MHz
MaSat-1 24 Oct 04:19:20 04:22:37 32° 338° (NNW) 04:25:33 437.345 MHz
PCSat 24 Oct 04:23:18 04:26:20 15° 107° (ESE) 04:29:21 145.825 MHz
Gurwin Techsat 1B 24 Oct 04:25:57 04:31:11 52° 101° (E) 04:36:23 435.225 FM
TMSAT-1 24 Oct 04:37:45 04:42:57 50° 100° (E) 04:48:07 436.925 FM
Oscar 19 24 Oct 04:41:22 04:46:22 53° 300° (WNW) 04:51:20 437.125 CW, 437.150 USB
OPAL 24 Oct 04:50:12 04:55:18 71° 61° (ENE) 05:00:22 ?
STRAND 1 24 Oct 04:56:04 05:00:00 23° 41° (NE) 05:03:57 ?
AO-27 24 Oct 04:56:47 05:02:02 75° 294° (WNW) 05:07:16 436.795 MHz FM
JAS-1B 24 Oct 05:02:04 05:08:00 59° 301° (WNW) 05:14:52 435.800 - 435.900 CW/SSB
RS-15 24 Oct 05:03:43 05:14:45 83° 14° (NNE) 05:26:07 29.354 - 29.394 USB, Beacon 29.352 USB
Oscar 16 24 Oct 05:27:15 05:31:46 32° 310° (NW) 05:36:16 437.025 USB, Beacon 2401.1428
AO-Echo 24 Oct 05:28:32 05:33:29 43° 304° (WNW) 05:38:29 ?
Uosat F 24 Oct 05:33:55 05:38:26 31° 93° (E) 05:42:56 435.120 FM
Sapphire 24 Oct 05:41:12 05:46:07 37° 124° (SE) 05:51:05 437.095 MHz 1200 baud AX-25 AFSK
Uribyol 2 24 Oct 05:45:10 05:50:04 41° 306° (NW) 05:54:55 436.500 FM
JAS-2 24 Oct 05:45:48 05:52:02 27° 82° (E) 05:58:26 435.800 - 435.900 CW/SSB, 435.910 FM
ITAMSAT 1 24 Oct 05:51:00 05:55:52 40° 306° (NW) 06:00:43 435.822 SSB
MaSat-1 24 Oct 05:56:14 05:59:00 23° 1° (N) 06:01:31 437.345 MHz
PCSat 24 Oct 06:03:26 06:08:38 48° 130° (SE) 06:13:51 145.825 MHz
Gurwin Techsat 1B 24 Oct 06:06:07 06:11:12 47° 303° (WNW) 06:16:17 435.225 FM
AO-7 24 Oct 06:07:20 06:15:32 56° 104° (ESE) 06:23:42 29.400 - 29.500 MHz
TMSAT-1 24 Oct 06:17:51 06:22:57 48° 302° (WNW) 06:28:02 436.925 FM
Oscar 19 24 Oct 06:21:14 06:24:51 20° 323° (NW) 06:28:27 437.125 CW, 437.150 USB
OPAL 24 Oct 06:30:02 06:34:37 32° 263° (W) 06:39:11 ?
STRAND 1 24 Oct 06:33:23 06:38:28 64° 63° (ENE) 06:43:36 ?
AO-27 24 Oct 06:36:42 06:40:57 26° 317° (NW) 06:45:12 436.795 MHz FM
JAS-1B 24 Oct 06:53:12 06:57:51 24° 324° (NW) 07:02:56 435.800 - 435.900 CW/SSB
Oscar 16 24 Oct 07:07:15 07:09:51 14° 334° (NNW) 07:12:26 437.025 USB, Beacon 2401.1428
AO-Echo 24 Oct 07:07:52 07:11:13 18° 326° (NW) 07:14:36 ?
Uosat F 24 Oct 07:12:37 07:17:41 71° 295° (WNW) 07:22:43 435.120 FM
Hamsat 24 Oct 07:15:43 07:19:42 40° 97° (E) 07:23:40 145.90 MHz
RS-15 24 Oct 07:16:16 07:27:07 68° 224° (SW) 07:38:21 29.354 - 29.394 USB, Beacon 29.352 USB
Sapphire 24 Oct 07:23:46 07:29:13 88° 327° (NNW) 07:34:43 437.095 MHz 1200 baud AX-25 AFSK
Uribyol 2 24 Oct 07:25:10 07:28:27 17° 328° (NNW) 07:31:44 436.500 FM
SO-67 24 Oct 07:27:02 07:28:01 11° 82° (E) 07:28:59 435.3500 MHz FM
JAS-2 24 Oct 07:30:44 07:38:16 72° 105° (ESE) 07:46:09 435.800 - 435.900 CW/SSB, 435.910 FM
ITAMSAT 1 24 Oct 07:31:01 07:34:16 17° 329° (NNW) 07:37:30 435.822 SSB
MaSat-1 24 Oct 07:32:22 07:35:21 37° 26° (NNE) 07:38:01 437.345 MHz
PCSat 24 Oct 07:46:30 07:51:58 74° 333° (NNW) 07:57:26 145.825 MHz
Gurwin Techsat 1B 24 Oct 07:46:35 07:50:11 19° 326° (NW) 07:53:47 435.225 FM
TMSAT-1 24 Oct 07:58:16 08:01:54 19° 325° (NW) 08:05:32 436.925 FM
AO-7 24 Oct 08:00:26 08:08:37 64° 308° (NW) 08:16:48 29.400 - 29.500 MHz
Oscar 19 24 Oct 08:01:30 08:02:32 11° 346° (NNW) 08:03:34 437.125 CW, 437.150 USB
STRAND 1 24 Oct 08:13:18 08:18:01 36° 265° (W) 08:22:47 ?
AO-27 24 Oct 08:16:48 08:19:00 13° 340° (NNW) 08:21:12 436.795 MHz FM
Saudisat 1A 24 Oct 08:23:07 08:24:46 12° 115° (ESE) 08:26:24 436.775 MHz
JAS-1B 24 Oct 08:43:39 08:46:42 15° 351° (N) 08:49:52 435.800 - 435.900 CW/SSB
AO-Echo 24 Oct 08:47:52 08:48:12 10° 350° (N) 08:48:32 ?
Hamsat 24 Oct 08:51:46 08:55:45 43° 299° (WNW) 08:59:44 145.90 MHz
Uosat F 24 Oct 08:51:51 08:55:51 24° 317° (NW) 08:59:50 435.120 FM
SO-67 24 Oct 08:58:18 09:01:45 61° 103° (ESE) 09:05:11 435.3500 MHz FM
Uribyol 2 24 Oct 09:05:11 09:06:09 11° 353° (N) 09:07:06 436.500 FM
Sapphire 24 Oct 09:07:45 09:13:07 55° 352° (N) 09:18:29 437.095 MHz 1200 baud AX-25 AFSK
MaSat-1 24 Oct 09:08:10 09:11:06 48° 230° (SW) 09:13:43 437.345 MHz
ITAMSAT 1 24 Oct 09:11:01 09:11:57 10° 353° (N) 09:12:53 435.822 SSB
JAS-2 24 Oct 09:16:03 09:23:07 49° 307° (NW) 09:30:34 435.800 - 435.900 CW/SSB, 435.910 FM
Gurwin Techsat 1B 24 Oct 09:27:04 09:28:24 11° 350° (N) 09:29:43 435.225 FM
RS-15 24 Oct 09:28:37 09:37:41 31° 252° (WSW) 09:47:02 29.354 - 29.394 USB, Beacon 29.352 USB
HO-68 24 Oct 09:29:52 09:35:44 26° 85° (E) 09:41:33 435.675 MHz FM
PCSat 24 Oct 09:30:37 09:35:58 53° 358° (N) 09:41:19 145.825 MHz
TMSAT-1 24 Oct 09:38:45 09:40:05 11° 349° (N) 09:41:24 436.925 FM
Oscar 19 24 Oct 09:39:21 09:39:53 10° 11° (N) 09:40:26 437.125 CW, 437.150 USB
AO-7 24 Oct 09:53:09 10:00:20 35° 334° (NNW) 10:07:33 29.400 - 29.500 MHz
AO-27 24 Oct 09:55:46 09:56:34 10° 5° (N) 09:57:21 436.795 MHz FM
Saudisat 1A 24 Oct 09:59:12 10:03:19 40° 136° (SE) 10:07:28 436.775 MHz
Oscar 16 24 Oct 10:22:34 10:24:44 13° 22° (NNE) 10:26:54 437.025 USB, Beacon 2401.1428
UKube-1 24 Oct 10:22:40 10:25:51 19° 87° (E) 10:29:01 145.840 MHz, 145.915 MHz
AO-Echo 24 Oct 10:23:52 10:24:57 11° 14° (NNE) 10:26:02 ?
Hamsat 24 Oct 10:28:42 10:30:51 14° 320° (NW) 10:32:59 145.90 MHz
Uosat F 24 Oct 10:31:23 10:33:09 12° 341° (NNW) 10:34:56 435.120 FM
SO-67 24 Oct 10:31:40 10:34:30 24° 304° (WNW) 10:37:19 435.3500 MHz FM
JAS-1B 24 Oct 10:31:48 10:35:15 17° 19° (NNE) 10:38:50 435.800 - 435.900 CW/SSB
Uribyol 2 24 Oct 10:41:45 10:43:39 12° 17° (NNE) 10:45:33 436.500 FM
ITAMSAT 1 24 Oct 10:47:30 10:49:29 12° 18° (NNE) 10:51:28 435.822 SSB
Sapphire 24 Oct 10:51:49 10:57:14 60° 17° (NNE) 11:02:38 437.095 MHz 1200 baud AX-25 AFSK
FUNcube-1 24 Oct 11:01:07 11:04:21 20° 87° (E) 11:07:31 145.950 - 145.970 MHz USB
JAS-2 24 Oct 11:01:11 11:06:50 25° 330° (NNW) 11:12:47 435.800 - 435.900 CW/SSB, 435.910 FM
Oscar 11 24 Oct 11:04:20 11:08:20 35° 96° (E) 11:12:19 145.825 FM, Beacon 2401.500 USB
Gurwin Techsat 1B 24 Oct 11:04:38 11:06:21 12° 14° (NNE) 11:08:04 435.225 FM
Oscar 19 24 Oct 11:14:07 11:17:30 18° 35° (NE) 11:20:53 437.125 CW, 437.150 USB
PCSat 24 Oct 11:14:34 11:20:01 68° 23° (NNE) 11:25:27 145.825 MHz
TMSAT-1 24 Oct 11:16:22 11:17:59 11° 14° (NNE) 11:19:36 436.925 FM
HO-68 24 Oct 11:17:26 11:24:42 74° 109° (ESE) 11:31:54 435.675 MHz FM
AO-27 24 Oct 11:31:11 11:34:14 16° 29° (NNE) 11:37:18 436.795 MHz FM
Saudisat 1A 24 Oct 11:38:15 11:42:42 86° 339° (NNW) 11:47:09 436.775 MHz
AO-7 24 Oct 11:44:38 11:51:14 28° 1° (N) 11:57:51 29.400 - 29.500 MHz
ZACube-1 24 Oct 11:52:06 11:56:18 44° 98° (E) 12:00:23 437.345 MHz
UKube-1 24 Oct 11:58:18 12:02:44 84° 109° (ESE) 12:07:07 145.840 MHz, 145.915 MHz
Oscar 16 24 Oct 11:58:25 12:02:41 27° 46° (NE) 12:06:57 437.025 USB, Beacon 2401.1428
AO-Echo 24 Oct 11:58:27 12:02:02 20° 38° (NE) 12:05:42 ?
Uribyol 2 24 Oct 12:17:32 12:21:34 23° 41° (NE) 12:25:37 436.500 FM
JAS-1B 24 Oct 12:19:24 12:24:27 34° 46° (NE) 12:29:40 435.800 - 435.900 CW/SSB
ITAMSAT 1 24 Oct 12:23:21 12:27:26 24° 41° (NE) 12:31:33 435.822 SSB
Sapphire 24 Oct 12:35:28 12:40:55 72° 221° (SW) 12:46:20 437.095 MHz 1200 baud AX-25 AFSK
FUNcube-1 24 Oct 12:37:00 12:41:24 90° 291° (WNW) 12:45:39 145.950 - 145.970 MHz USB
KITSAT 1 24 Oct 12:39:36 12:45:39 24° 107° (ESE) 12:51:42 435.175 FM
Oscar 11 24 Oct 12:40:31 12:44:43 51° 297° (WNW) 12:48:54 145.825 FM, Beacon 2401.500 USB
Gurwin Techsat 1B 24 Oct 12:40:45 12:44:40 21° 38° (NE) 12:48:35 435.225 FM
JAS-2 24 Oct 12:45:18 12:49:46 18° 355° (N) 12:54:28 435.800 - 435.900 CW/SSB, 435.910 FM
Oscar 19 24 Oct 12:50:59 12:55:53 46° 58° (ENE) 13:00:48 437.125 CW, 437.150 USB
TMSAT-1 24 Oct 12:52:23 12:56:14 21° 38° (NE) 13:00:05 436.925 FM
PCSat 24 Oct 12:58:09 13:03:29 56° 227° (SW) 13:08:47 145.825 MHz
HO-68 24 Oct 13:05:25 13:12:12 46° 313° (NW) 13:18:58 435.675 MHz FM
AO-27 24 Oct 13:07:49 13:12:34 37° 52° (NE) 13:17:21 436.795 MHz FM
Saudisat 1A 24 Oct 13:18:07 13:22:33 66° 2° (N) 13:26:58 436.775 MHz
ZACube-1 24 Oct 13:28:38 13:32:45 41° 300° (WNW) 13:36:46 437.345 MHz
AO-7 24 Oct 13:34:54 13:42:10 36° 28° (NNE) 13:49:27 29.400 - 29.500 MHz
UKube-1 24 Oct 13:34:54 13:38:34 26° 310° (NW) 13:42:12 145.840 MHz, 145.915 MHz
AO-Echo 24 Oct 13:35:02 13:39:54 53° 61° (ENE) 13:44:58 ?
Oscar 16 24 Oct 13:36:21 13:41:32 82° 68° (ENE) 13:46:43 437.025 USB, Beacon 2401.1428
Uosat F 24 Oct 13:44:11 13:47:00 15° 29° (NNE) 13:49:49 435.120 FM
SO-50 24 Oct 13:51:33 13:54:13 15° 117° (ESE) 13:56:56 436.795 FM
Uribyol 2 24 Oct 13:55:09 14:00:20 65° 63° (ENE) 14:05:32 436.500 FM
